DELTA 1 DEB, 13564

Orbit data source: Space-Track

DELTA 1 DEB, 13564 is space debris in SSO originally from a launch on Sun, 05 Mar 1978 UTC launched from the Air Force Western Test Range (AFWTR). Debris objects in space refer to the collection of defunct objects orbiting the Earth. Examples of debris include non-operational satellites, rocket bodies, and fragments generated from explosions, collisions, or faulty payload assembly.

Loading next visibility...
Identifier
13564, 1978-026FB
Orbit
SSO
Country
Flag of USUS
Related business
Manufacturer
Unknown
Mission
Spacecraft
Bus & Motor
Unknown
Mass
Unknown
Launch date (UTC)
1978-03-05 (48 years ago)
Launch vehicle
Unknown
Launch site
Air Force Western Test Range (AFWTR)
Object type
Payload
Rocket body
Debris
Shape & HBR
Unknown shape, 0.1 m
Radar Cross Section
Small (<0.1 m²)

Expand to show TLE details & history
Last TLE update: 2 days ago

TLE from 2 days ago
0 DELTA 1 DEB
1 13564U 78026FB  26171.33372439  .00000310  00000-0  24773-3 0  9993
2 13564  98.8972 109.6060 0201744 309.4929 203.5442 13.89003825221183
Epoch: 2026-06-20T08:00Z
TLE epoch observation values (Epoch: 2026-06-20T08:00:33.787Z)
Latitude
27.54074°
Longitude
-94.42614°
Altitude
1,071.144 km
Speed
7.251 km/s
True Right ascension
19h 37m 03s
True Declination
27° 24' 21"
Sunlit
Object was in full shadow at epoch
Visualization orbit readout
Latitude
Unknown
Longitude
Unknown
Altitude
Unknown
Speed
Unknown
Apparent Right ascension
Unknown
Apparent Declination
Unknown
Sunlit
N/A
Visualization observer readout
Local Sidereal Time
07:04:03
Azimuth
Unknown
Elevation
Unknown
Doppler factor
Unknown
Orbital elements
Apogee altitude
1,076.755 km
Perigee altitude
781.908 km
Semi-major axis
7,307.468 km
Eccentricity
0.02017
Inclination
98.8972°
RAAN
109.606°
Arg. of periapsis
309.4929°
True anomaly
202.64165°
Mean anomaly
203.5442°
Eccentric anomaly
203.09086°
Mean motion
3.4745 °/min
Orbital period
103.61 mins
BSTAR
0.00024773
Loading maneuver chart data...
Computing Atmospheric mass density...

Documentation

Showing up to 5 results
|